XATRT MMGL-MMMY

Flight info

Callsign XATRT
Flight time 1h 6m
Altitude 41000
Route OTOKI1B OTOKI J42 ZCL UT5 SLW
Aircraft C700/M-SBDGHM1RWXY/LB2

Departure

Time 2026-04-22 02:09
Airport Guadalajara International Airport (MMGL)

Arrival

Time 2026-04-22 03:16
Airport Monterrey International Airport (MMMY)
Time Latitude Longitude Altitude Speed Heading
2026-04-22 01:45 20.51684 -103.31935 5023 ft 0 kts 121°
2026-04-22 02:03 20.51683 -103.31933 5023 ft 2 kts 121°
2026-04-22 02:03 20.51660 -103.31892 5023 ft 10 kts 119°
2026-04-22 02:03 20.51641 -103.31819 5023 ft 11 kts 52°
2026-04-22 02:04 20.51658 -103.31693 5023 ft 12 kts 120°
2026-04-22 02:04 20.51645 -103.31613 5023 ft 12 kts 37°
2026-04-22 02:04 20.51725 -103.31564 5023 ft 14 kts 30°
2026-04-22 02:05 20.51815 -103.31511 5023 ft 16 kts 29°
2026-04-22 02:05 20.51913 -103.31451 5024 ft 17 kts 29°
2026-04-22 02:05 20.52009 -103.31394 5024 ft 12 kts 29°
2026-04-22 02:05 20.52072 -103.31341 5024 ft 12 kts 76°
2026-04-22 02:06 20.52046 -103.31257 5024 ft 13 kts 114°
2026-04-22 02:06 20.52008 -103.31166 5024 ft 14 kts 112°
2026-04-22 02:06 20.51966 -103.31066 5024 ft 16 kts 114°
2026-04-22 02:06 20.51920 -103.30958 5024 ft 16 kts 114°
2026-04-22 02:07 20.51875 -103.30849 5024 ft 15 kts 115°
2026-04-22 02:07 20.51877 -103.30751 5023 ft 15 kts 31°
2026-04-22 02:07 20.51923 -103.30730 5023 ft 0 kts 23°
2026-04-22 02:08 20.51936 -103.30723 5023 ft 5 kts 24°
2026-04-22 02:08 20.51985 -103.30700 5023 ft 10 kts 25°
2026-04-22 02:08 20.52012 -103.30705 5023 ft 5 kts 294°
2026-04-22 02:08 20.52014 -103.30712 5023 ft 0 kts 294°
2026-04-22 02:09 20.52110 -103.30941 5025 ft 78 kts 294°
2026-04-22 02:09 20.52450 -103.31728 5058 ft 149 kts 290°
2026-04-22 02:09 20.52971 -103.32790 5761 ft 170 kts 294°
2026-04-22 02:10 20.53426 -103.33986 6409 ft 181 kts 288°
2026-04-22 02:10 20.53926 -103.35288 7046 ft 197 kts 292°
2026-04-22 02:10 20.54501 -103.36634 7786 ft 204 kts 293°
2026-04-22 02:10 20.55094 -103.38037 8587 ft 210 kts 293°
2026-04-22 02:11 20.55693 -103.39467 9425 ft 212 kts 294°
2026-04-22 02:11 20.56312 -103.40934 10146 ft 221 kts 294°
2026-04-22 02:11 20.56943 -103.42445 10753 ft 224 kts 294°
2026-04-22 02:11 20.57585 -103.43978 11377 ft 228 kts 294°
2026-04-22 02:12 20.58240 -103.45544 12008 ft 233 kts 294°
2026-04-22 02:12 20.58957 -103.47110 12649 ft 236 kts 304°
2026-04-22 02:12 20.60253 -103.48143 13297 ft 239 kts 344°
2026-04-22 02:12 20.61902 -103.48108 13968 ft 242 kts 19°
2026-04-22 02:13 20.63253 -103.47038 14438 ft 252 kts 52°
2026-04-22 02:13 20.64189 -103.45434 14916 ft 256 kts 60°
2026-04-22 02:13 20.65073 -103.43744 15642 ft 267 kts 59°
2026-04-22 02:13 20.66072 -103.41957 16200 ft 293 kts 57°
2026-04-22 02:14 20.67179 -103.40044 16736 ft 320 kts 57°
2026-04-22 02:14 20.68389 -103.37924 17329 ft 347 kts 58°
2026-04-22 02:14 20.69685 -103.35636 17935 ft 373 kts 57°
2026-04-22 02:14 20.71345 -103.33478 18903 ft 380 kts 43°
2026-04-22 02:15 20.73446 -103.31677 19464 ft 389 kts 30°
2026-04-22 02:15 20.75860 -103.30415 19984 ft 384 kts 18°
2026-04-22 02:15 20.78412 -103.29528 20526 ft 389 kts 16°
2026-04-22 02:15 20.81007 -103.28615 21061 ft 393 kts 16°
2026-04-22 02:16 20.83615 -103.27687 21609 ft 397 kts 16°
2026-04-22 02:16 20.86244 -103.26763 22166 ft 399 kts 15°
2026-04-22 02:16 20.88905 -103.25835 22739 ft 403 kts 15°
2026-04-22 02:16 20.91591 -103.24891 23630 ft 406 kts 15°
2026-04-22 02:17 20.94258 -103.23946 24437 ft 412 kts 15°
2026-04-22 02:17 20.97002 -103.22979 25217 ft 417 kts 14°
2026-04-22 02:17 20.99779 -103.22006 26023 ft 423 kts 14°
2026-04-22 02:17 21.02597 -103.21014 26817 ft 428 kts 14°
2026-04-22 02:18 21.05443 -103.20006 27580 ft 434 kts 14°
2026-04-22 02:18 21.08326 -103.18987 28321 ft 439 kts 14°
2026-04-22 02:18 21.11249 -103.17958 29059 ft 445 kts 14°
2026-04-22 02:18 21.14204 -103.16915 29804 ft 450 kts 14°
2026-04-22 02:19 21.17208 -103.15851 30439 ft 458 kts 14°
2026-04-22 02:19 21.20240 -103.14779 31141 ft 461 kts 13°
2026-04-22 02:19 21.23311 -103.13695 31714 ft 467 kts 13°
2026-04-22 02:19 21.26413 -103.12598 32287 ft 471 kts 13°
2026-04-22 02:20 21.29547 -103.11487 32819 ft 476 kts 13°
2026-04-22 02:20 21.32709 -103.10384 33356 ft 479 kts 11°
2026-04-22 02:20 21.35913 -103.09544 33874 ft 482 kts
2026-04-22 02:20 21.39198 -103.08705 34348 ft 487 kts
2026-04-22 02:21 21.42502 -103.07825 34801 ft 492 kts
2026-04-22 02:21 21.45843 -103.06941 35265 ft 496 kts
2026-04-22 02:21 21.49190 -103.06077 35878 ft 496 kts
2026-04-22 02:21 21.52557 -103.05206 36422 ft 497 kts
2026-04-22 02:22 21.55922 -103.04325 36935 ft 498 kts
2026-04-22 02:22 21.59292 -103.03439 37412 ft 498 kts
2026-04-22 02:22 21.62661 -103.02560 37867 ft 499 kts
2026-04-22 02:22 21.66042 -103.01680 38304 ft 500 kts
2026-04-22 02:23 21.69424 -103.00794 38700 ft 501 kts
2026-04-22 02:23 21.72805 -102.99907 39041 ft 500 kts
2026-04-22 02:23 21.76180 -102.99023 39439 ft 498 kts
2026-04-22 02:23 21.79548 -102.98142 39786 ft 497 kts
2026-04-22 02:24 21.82858 -102.97275 40138 ft 495 kts
2026-04-22 02:24 21.86252 -102.96385 40475 ft 494 kts
2026-04-22 02:24 21.89584 -102.95509 40782 ft 493 kts
2026-04-22 02:24 21.92863 -102.94648 40990 ft 491 kts
2026-04-22 02:25 21.96174 -102.93779 40987 ft 485 kts
2026-04-22 02:25 22.02659 -102.92091 40984 ft 476 kts
2026-04-22 02:26 22.09136 -102.90403 40984 ft 481 kts
2026-04-22 02:26 22.15656 -102.88678 40984 ft 482 kts
2026-04-22 02:27 22.22165 -102.86966 40992 ft 481 kts
2026-04-22 02:27 22.28652 -102.85252 40990 ft 479 kts
2026-04-22 02:28 22.35124 -102.83546 40994 ft 480 kts
2026-04-22 02:28 22.41627 -102.81827 41000 ft 482 kts
2026-04-22 02:29 22.48140 -102.80104 41009 ft 482 kts
2026-04-22 02:29 22.54648 -102.78381 41014 ft 481 kts
2026-04-22 02:30 22.61155 -102.76656 41083 ft 480 kts
2026-04-22 02:30 22.67642 -102.74935 41153 ft 479 kts
2026-04-22 02:31 22.74102 -102.73220 41227 ft 478 kts
2026-04-22 02:31 22.80569 -102.71502 41299 ft 480 kts
2026-04-22 02:32 22.87066 -102.69705 41302 ft 486 kts 12°
2026-04-22 02:32 22.93213 -102.66432 41302 ft 496 kts 26°
2026-04-22 02:33 22.99083 -102.62628 41283 ft 493 kts 25°
2026-04-22 02:33 23.04961 -102.58813 41204 ft 492 kts 26°
2026-04-22 02:34 23.09862 -102.55628 41133 ft 494 kts 26°
2026-04-22 02:34 23.15790 -102.51778 41048 ft 497 kts 26°
2026-04-22 02:35 23.21719 -102.47915 40976 ft 495 kts 26°
2026-04-22 02:35 23.27613 -102.44078 40973 ft 493 kts 26°
2026-04-22 02:36 23.33485 -102.40248 40975 ft 492 kts 25°
2026-04-22 02:36 23.39385 -102.36398 40969 ft 495 kts 26°
2026-04-22 02:37 23.45315 -102.32522 40973 ft 497 kts 25°
2026-04-22 02:37 23.51204 -102.28667 40974 ft 494 kts 25°
2026-04-22 02:38 23.57090 -102.24814 40974 ft 491 kts 25°
2026-04-22 02:38 23.62955 -102.20970 40973 ft 492 kts 25°
2026-04-22 02:39 23.68841 -102.17103 40977 ft 496 kts 25°
2026-04-22 02:39 23.74754 -102.13214 40980 ft 494 kts 25°
2026-04-22 02:40 23.80622 -102.09352 40981 ft 491 kts 25°
2026-04-22 02:40 23.86432 -102.05524 40985 ft 491 kts 25°
2026-04-22 02:41 23.92296 -102.01658 40979 ft 493 kts 25°
2026-04-22 02:41 23.98184 -101.97769 40983 ft 496 kts 25°
2026-04-22 02:42 24.04085 -101.93872 40988 ft 494 kts 25°
2026-04-22 02:42 24.09962 -101.89987 40993 ft 492 kts 25°
2026-04-22 02:43 24.15819 -101.86112 40994 ft 491 kts 25°
2026-04-22 02:43 24.21680 -101.82231 41000 ft 494 kts 25°
2026-04-22 02:44 24.27586 -101.78313 41013 ft 497 kts 25°
2026-04-22 02:44 24.33499 -101.74386 41013 ft 496 kts 25°
2026-04-22 02:45 24.39355 -101.70495 41020 ft 494 kts 25°
2026-04-22 02:45 24.45230 -101.66586 41029 ft 493 kts 25°
2026-04-22 02:46 24.51119 -101.62665 41024 ft 496 kts 25°
2026-04-22 02:46 24.57046 -101.58711 41037 ft 499 kts 25°
2026-04-22 02:47 24.62929 -101.54783 41037 ft 496 kts 25°
2026-04-22 02:47 24.68812 -101.50852 41041 ft 494 kts 25°
2026-04-22 02:48 24.74697 -101.46916 41044 ft 496 kts 25°
2026-04-22 02:48 24.80584 -101.42971 41054 ft 496 kts 25°
2026-04-22 02:49 24.86479 -101.39019 41062 ft 495 kts 25°
2026-04-22 02:49 24.92364 -101.35064 41067 ft 496 kts 25°
2026-04-22 02:50 24.98273 -101.31095 41006 ft 499 kts 25°
2026-04-22 02:50 25.01230 -101.29103 40396 ft 497 kts 25°
2026-04-22 02:50 25.04158 -101.27127 39765 ft 490 kts 25°
2026-04-22 02:50 25.07052 -101.25175 39134 ft 485 kts 25°
2026-04-22 02:51 25.09913 -101.23228 38475 ft 481 kts 26°
2026-04-22 02:51 25.12738 -101.21290 37841 ft 475 kts 26°
2026-04-22 02:51 25.15524 -101.19362 37226 ft 467 kts 25°
2026-04-22 02:51 25.18294 -101.17553 36628 ft 458 kts 22°
2026-04-22 02:52 25.21039 -101.15795 36037 ft 453 kts 24°
2026-04-22 02:52 25.23705 -101.13969 35456 ft 449 kts 25°
2026-04-22 02:52 25.26339 -101.12127 34875 ft 444 kts 24°
2026-04-22 02:52 25.28949 -101.10369 34321 ft 437 kts 22°
2026-04-22 02:53 25.31546 -101.08647 33727 ft 433 kts 23°
2026-04-22 02:53 25.34083 -101.06929 33179 ft 432 kts 24°
2026-04-22 02:53 25.36635 -101.05184 32627 ft 434 kts 24°
2026-04-22 02:53 25.39228 -101.03427 32065 ft 439 kts 24°
2026-04-22 02:54 25.41851 -101.01658 31483 ft 444 kts 24°
2026-04-22 02:54 25.44490 -100.99866 30905 ft 447 kts 25°
2026-04-22 02:54 25.47065 -100.97911 30325 ft 453 kts 33°
2026-04-22 02:54 25.49366 -100.95497 29683 ft 457 kts 43°
2026-04-22 02:55 25.51318 -100.92710 29078 ft 460 kts 52°
2026-04-22 02:55 25.52871 -100.89599 28471 ft 464 kts 63°
2026-04-22 02:55 25.53978 -100.86220 27862 ft 469 kts 72°
2026-04-22 02:55 25.54595 -100.82666 27238 ft 473 kts 83°
2026-04-22 02:56 25.54730 -100.79017 26601 ft 474 kts 90°
2026-04-22 02:56 25.54743 -100.75402 25969 ft 465 kts 89°
2026-04-22 02:56 25.54770 -100.71866 25352 ft 453 kts 89°
2026-04-22 02:56 25.54799 -100.68420 24752 ft 442 kts 89°
2026-04-22 02:57 25.54819 -100.65042 24156 ft 434 kts 89°
2026-04-22 02:57 25.54838 -100.61737 23564 ft 425 kts 89°
2026-04-22 02:57 25.54858 -100.58496 22973 ft 415 kts 89°
2026-04-22 02:57 25.54878 -100.55341 22420 ft 406 kts 89°
2026-04-22 02:58 25.54896 -100.52223 21883 ft 401 kts 90°
2026-04-22 02:58 25.54912 -100.49176 21351 ft 399 kts 90°
2026-04-22 02:58 25.54927 -100.46114 20837 ft 398 kts 90°
2026-04-22 02:58 25.54942 -100.43060 20316 ft 396 kts 90°
2026-04-22 02:59 25.54957 -100.40027 19801 ft 392 kts 90°
2026-04-22 02:59 25.54971 -100.36997 19181 ft 396 kts 90°
2026-04-22 02:59 25.54981 -100.33935 18645 ft 401 kts 90°
2026-04-22 02:59 25.55092 -100.30859 18453 ft 393 kts 82°
2026-04-22 03:00 25.55705 -100.27980 18233 ft 374 kts 71°
2026-04-22 03:00 25.56701 -100.25389 18009 ft 358 kts 59°
2026-04-22 03:00 25.58021 -100.23117 17980 ft 347 kts 49°
2026-04-22 03:00 25.59655 -100.21123 17987 ft 354 kts 39°
2026-04-22 03:01 25.61591 -100.19425 17982 ft 353 kts 29°
2026-04-22 03:01 25.63662 -100.18002 17990 ft 349 kts 27°
2026-04-22 03:01 25.65728 -100.16554 17991 ft 352 kts 28°
2026-04-22 03:01 25.67796 -100.15098 17997 ft 353 kts 27°
2026-04-22 03:02 25.69874 -100.13650 17998 ft 353 kts 27°
2026-04-22 03:02 25.71955 -100.12203 18000 ft 353 kts 27°
2026-04-22 03:02 25.74032 -100.10752 18001 ft 352 kts 27°
2026-04-22 03:02 25.76099 -100.09306 17948 ft 353 kts 27°
2026-04-22 03:03 25.78179 -100.07857 17451 ft 359 kts 27°
2026-04-22 03:03 25.80277 -100.06387 16884 ft 354 kts 27°
2026-04-22 03:03 25.82336 -100.04940 16326 ft 347 kts 27°
2026-04-22 03:03 25.84360 -100.03528 15773 ft 341 kts 27°
2026-04-22 03:04 25.86369 -100.02165 15244 ft 332 kts 21°
2026-04-22 03:04 25.88526 -100.01458 14712 ft 317 kts
2026-04-22 03:04 25.90680 -100.01389 14209 ft 304 kts 348°
2026-04-22 03:04 25.92696 -100.01908 13710 ft 293 kts 335°
2026-04-22 03:05 25.94425 -100.02887 13248 ft 268 kts 322°
2026-04-22 03:05 25.95811 -100.04178 12824 ft 252 kts 310°
2026-04-22 03:05 25.96854 -100.05672 12454 ft 237 kts 300°
2026-04-22 03:05 25.97688 -100.07171 12123 ft 224 kts 300°
2026-04-22 03:06 25.98527 -100.08622 11796 ft 222 kts 301°
2026-04-22 03:06 25.99350 -100.10064 11471 ft 222 kts 301°
2026-04-22 03:06 26.00176 -100.11514 11143 ft 223 kts 301°
2026-04-22 03:06 26.01009 -100.12978 10811 ft 224 kts 301°
2026-04-22 03:07 26.01846 -100.14447 10480 ft 226 kts 301°
2026-04-22 03:07 26.02689 -100.15930 10138 ft 227 kts 301°
2026-04-22 03:07 26.03322 -100.17528 9784 ft 226 kts 285°
2026-04-22 03:07 26.03537 -100.19257 9445 ft 226 kts 271°
2026-04-22 03:08 26.03331 -100.20988 9117 ft 227 kts 256°
2026-04-22 03:08 26.02717 -100.22610 8773 ft 229 kts 240°
2026-04-22 03:08 26.01745 -100.23979 8435 ft 230 kts 225°
2026-04-22 03:08 26.00459 -100.25030 8106 ft 230 kts 210°
2026-04-22 03:09 25.99079 -100.25932 7772 ft 230 kts 211°
2026-04-22 03:09 25.97714 -100.26866 7422 ft 230 kts 210°
2026-04-22 03:09 25.96350 -100.27787 7083 ft 227 kts 209°
2026-04-22 03:09 25.95054 -100.28656 6786 ft 209 kts 208°
2026-04-22 03:10 25.93845 -100.29465 6498 ft 197 kts 208°
2026-04-22 03:10 25.92706 -100.30231 6233 ft 186 kts 208°
2026-04-22 03:10 25.91542 -100.30748 5956 ft 175 kts 186°
2026-04-22 03:10 25.90357 -100.30767 5694 ft 168 kts 169°
2026-04-22 03:11 25.89269 -100.30379 5453 ft 164 kts 151°
2026-04-22 03:11 25.88348 -100.29631 5210 ft 164 kts 134°
2026-04-22 03:11 25.87689 -100.28609 4970 ft 163 kts 120°
2026-04-22 03:11 25.87110 -100.27532 4720 ft 162 kts 123°
2026-04-22 03:12 25.86499 -100.26451 4306 ft 168 kts 122°
2026-04-22 03:12 25.85306 -100.24273 3739 ft 162 kts 122°
2026-04-22 03:12 25.84720 -100.23207 3488 ft 160 kts 121°
2026-04-22 03:13 25.84151 -100.22167 3384 ft 157 kts 122°
2026-04-22 03:13 25.83578 -100.21116 3272 ft 163 kts 122°
2026-04-22 03:13 25.82976 -100.20027 3061 ft 167 kts 122°
2026-04-22 03:13 25.82375 -100.18937 2843 ft 165 kts 121°
2026-04-22 03:14 25.81789 -100.17871 2624 ft 157 kts 121°
2026-04-22 03:14 25.81238 -100.16824 2408 ft 158 kts 121°
2026-04-22 03:14 25.80643 -100.15780 2196 ft 163 kts 122°
2026-04-22 03:14 25.80053 -100.14758 2071 ft 145 kts 121°
2026-04-22 03:15 25.79557 -100.13824 1812 ft 133 kts 119°
2026-04-22 03:15 25.79120 -100.12971 1600 ft 123 kts 121°
2026-04-22 03:15 25.78667 -100.12164 1403 ft 121 kts 121°
2026-04-22 03:15 25.78223 -100.11363 1277 ft 119 kts 122°
2026-04-22 03:16 25.77872 -100.10728 1274 ft 75 kts 121°
2026-04-22 03:16 25.77643 -100.10313 1271 ft 56 kts 121°
2026-04-22 03:16 25.77457 -100.09975 1267 ft 47 kts 121°
2026-04-22 03:16 25.77313 -100.09714 1262 ft 22 kts 124°
2026-04-22 03:17 25.77216 -100.09722 1263 ft 17 kts 211°
2026-04-22 03:17 25.77154 -100.09771 1261 ft 11 kts 236°
2026-04-22 03:17 25.77172 -100.09858 1263 ft 14 kts 301°
2026-04-22 03:17 25.77227 -100.09958 1265 ft 16 kts 301°
2026-04-22 03:18 25.77267 -100.10032 1266 ft 17 kts 301°
2026-04-22 03:18 25.77355 -100.10192 1269 ft 20 kts 301°
2026-04-22 03:18 25.77430 -100.10329 1270 ft 22 kts 301°
2026-04-22 03:18 25.77485 -100.10429 1271 ft 23 kts 301°
2026-04-22 03:19 25.77572 -100.10588 1273 ft 25 kts 301°
2026-04-22 03:19 25.77592 -100.10693 1273 ft 15 kts 222°
2026-04-22 03:19 25.77497 -100.10757 1273 ft 17 kts 210°
2026-04-22 03:19 25.77419 -100.10840 1273 ft 14 kts 251°
2026-04-22 03:20 25.77396 -100.10896 1274 ft 6 kts 204°
2026-04-22 03:20 25.77347 -100.10907 1273 ft 9 kts 223°
2026-04-22 03:20 25.77317 -100.10921 1273 ft 1 kts 190°
2026-04-22 03:20 25.77316 -100.10921 1273 ft 0 kts 190°